| time (UTC) | temp C | wind direction | speed KPH | gust KPH | rain 1hr cm | rain 24hr cm | rain mn cm | humidity % | barometer mb |
| 20260504213106 | 20 | 250 | 0.0 | 3.2 | 0.00 | 0.00 | 0.00 | 38 | 1006.4 |
| 20260504211600 | 21 | 255 | 1.6 | 3.2 | 0.00 | 0.00 | 0.00 | 38 | 1006.4 |
| 20260504210056 | 21 | 186 | 0.0 | 4.8 | 0.00 | 0.00 | 0.00 | 38 | 1006.3 |
| 20260504204601 | 21 | 278 | 1.6 | 3.2 | 0.00 | 0.00 | 0.00 | 36 | 1006.4 |
| 20260504203102 | 20 | 219 | 1.6 | 3.2 | 0.00 | 0.00 | 0.00 | 38 | 1006.3 |
| 20260504201601 | 21 | 252 | 0.0 | 4.8 | 0.00 | 0.00 | 0.00 | 37 | 1006.2 |
| 20260504200055 | 21 | 272 | 1.6 | 4.8 | 0.00 | 0.00 | 0.00 | 35 | 1006.2 |
| 20260504194556 | 21 | 226 | 0.0 | 4.8 | 0.00 | 0.00 | 0.00 | 38 | 1006.3 |
| 20260504193055 | 20 | 268 | 0.0 | 4.8 | 0.00 | 0.00 | 0.00 | 36 | 1006.5 |
| 20260504191605 | 21 | 265 | 0.0 | 9.7 | 0.00 | 0.00 | 0.00 | 37 | 1006.4 |
| 20260504190100 | 22 | 220 | 1.6 | 3.2 | 0.00 | 0.00 | 0.00 | 33 | 1006.5 |
| 20260504184555 | 22 | 262 | 1.6 | 11.3 | 0.00 | 0.00 | 0.00 | 34 | 1006.7 |
| 20260504183106 | 22 | 233 | 1.6 | 4.8 | 0.00 | 0.00 | 0.00 | 34 | 1006.9 |
| 20260504181600 | 22 | 234 | 3.2 | 12.9 | 0.00 | 0.00 | 0.00 | 33 | 1007.1 |
| 20260504174555 | 22 | 220 | 3.2 | 6.4 | 0.00 | 0.00 | 0.00 | 35 | 1007.2 |
| 20260504173055 | 22 | 229 | 1.6 | 4.8 | 0.00 | 0.00 | 0.00 | 33 | 1007.3 |
| 20260504171553 | 22 | 227 | 1.6 | 6.4 | 0.00 | 0.00 | 0.00 | 37 | 1007.3 |
| 20260504160107 | 20 | 263 | 1.6 | 6.4 | 0.00 | 0.00 | 0.00 | 39 | 1007.8 |
| 20260504081556 | 4 | 0 | 0.0 | 0.0 | 0.00 | 0.00 | 0.00 | 86 | 1010.2 |
| 20260504080106 | 4 | 0 | 0.0 | 0.0 | 0.00 | 0.00 | 0.00 | 86 | 1010.2 |
| 20260504050105 | 1 | 0 | 0.0 | 0.0 | 0.00 | 0.03 | 0.00 | 89 | 1010.2 |
| 20260504044557 | 0 | 0 | 0.0 | 0.0 | 0.00 | 0.03 | 0.00 | 93 | 1010.2 |
| 20260504043054 | 0 | 0 | 0.0 | 0.0 | 0.00 | 0.03 | 0.00 | 92 | 1010.2 |
| 20260504041549 | -1 | 0 | 0.0 | 0.0 | 0.00 | 0.03 | 0.00 | 91 | 1010.1 |
| 20260504040056 | 0 | 0 | 0.0 | 0.0 | 0.00 | 0.03 | 0.00 | 90 | 1010.0 |
| 20260504034552 | 0 | 0 | 0.0 | 0.0 | 0.00 | 0.03 | 0.03 | 89 | 1009.9 |
| 20260504033054 | 0 | 0 | 0.0 | 0.0 | 0.00 | 0.03 | 0.03 | 88 | 1009.9 |
| 20260504031554 | 0 | 0 | 0.0 | 0.0 | 0.00 | 0.03 | 0.03 | 88 | 1009.8 |
| 20260504030054 | 0 | 0 | 0.0 | 0.0 | 0.00 | 0.03 | 0.03 | 87 | 1009.8 |
| 20260504024608 | 1 | 0 | 0.0 | 0.0 | 0.00 | 0.03 | 0.03 | 87 | 1009.8 |
| 20260504023057 | 1 | 0 | 0.0 | 0.0 | 0.00 | 0.03 | 0.03 | 86 | 1009.8 |
| 20260504021554 | 1 | 0 | 0.0 | 0.0 | 0.00 | 0.03 | 0.03 | 85 | 1009.8 |
| 20260504020054 | 1 | 0 | 0.0 | 0.0 | 0.00 | 0.03 | 0.03 | 84 | 1009.8 |
| 20260504014604 | 1 | 0 | 0.0 | 0.0 | 0.00 | 0.03 | 0.03 | 85 | 1009.6 |
| 20260504013056 | 1 | 0 | 0.0 | 0.0 | 0.00 | 0.03 | 0.03 | 85 | 1009.4 |
| 20260504011559 | 2 | 0 | 0.0 | 0.0 | 0.00 | 0.03 | 0.03 | 81 | 1009.4 |
| 20260504010105 | 2 | 0 | 0.0 | 0.0 | 0.00 | 0.03 | 0.03 | 80 | 1009.2 |
| 20260504004553 | 3 | 0 | 0.0 | 0.0 | 0.00 | 0.03 | 0.03 | 75 | 1009.1 |
| 20260504003058 | 4 | 0 | 0.0 | 0.0 | 0.00 | 0.03 | 0.03 | 71 | 1009.0 |
| 20260504001600 | 5 | 0 | 0.0 | 0.0 | 0.00 | 0.03 | 0.03 | 64 | 1008.8 |
| 20260504000139 | 6 | 0 | 0.0 | 0.0 | 0.00 | 0.03 | 0.03 | 63 | 1008.6 |
| 20260503234601 | 7 | 0 | 0.0 | 0.0 | 0.00 | 0.03 | 0.03 | 58 | 1008.5 |
| 20260503233054 | 8 | 0 | 0.0 | 3.2 | 0.00 | 0.03 | 0.03 | 56 | 1008.3 |
| 20260503231555 | 8 | 104 | 0.0 | 1.6 | 0.00 | 0.03 | 0.03 | 52 | 1008.2 |
| 20260503230055 | 9 | 273 | 1.6 | 4.8 | 0.00 | 0.03 | 0.03 | 48 | 1008.0 |
| 20260503224552 | 9 | 285 | 0.0 | 4.8 | 0.00 | 0.03 | 0.03 | 49 | 1007.9 |
| 20260503223057 | 10 | 155 | 0.0 | 8.0 | 0.00 | 0.03 | 0.03 | 50 | 1007.9 |
| 20260503221558 | 10 | 309 | 3.2 | 16.1 | 0.00 | 0.03 | 0.03 | 43 | 1007.6 |
| 20260503220057 | 10 | 269 | 3.2 | 12.9 | 0.00 | 0.03 | 0.03 | 44 | 1007.5 |
| 20260503214553 | 11 | 295 | 3.2 | 11.3 | 0.00 | 0.05 | 0.03 | 43 | 1007.4 |